Location: Adrasan
(36.3319°N, 30.4314°E)
Time: 10:28:26
(UTC+00:00)

Meteor 1-10 Rocket - Pass Details

Date: 30 May 2024
Orbit: 834 x 910 km, 81.3° (Epoch: 16 June)

Event Time Altitude Azimuth Distance (km) Brightness Sun altitude
Rises 17:29:08 0° 159° (SSE) 3,451 6.9 -4.3°
Reaches altitude 10° 17:31:51 10° 149° (SSE) 2,505 6.1 -4.7°
Maximum altitude 17:36:42 30° 90° (E) 1,496 5.1 -5.6°
Drops below altitude 10° 17:41:29 10° 31° (NNE) 2,477 6.7 -6.4°
Sets 17:44:09 0° 21° (NNE) 3,407 7.5 -6.8°
